Regional Weather Roundup
Issued by NWS

Home | Current Version | Previous Version | Text Only | Print | Product List | Glossary Off
Versions: 1 2 3 4 5 6 7 8 9 10 11 12 13 14 15 16 17 18 19 20 21 22 23 24 25 26 27 28 29 30 31 32 33 34 35 36 37 38 39 40 41 42 43 44 45 46 47 48 49 50

000
ASUS45 KBOI 281210
RWRID

IDAHO REGIONAL WEATHER ROUNDUP
NATIONAL WEATHER SERVICE BOISE ID
600 AM MDT WED SEP 28 2016

NOTE: "FAIR" INDICATES FEW OR NO CLOUDS BELOW 12000 FEET
WITH NO SIGNIFICANT WEATHER AND/OR OBSTRUCTIONS TO VISIBILITY

IDZ012-014-281300-
SOUTHWEST IDAHO


CITY           SKY/WX    TMP DP  RH WIND       PRES   REMARKS
BOISE          CLEAR     59  39  47 SE3       30.02S
CALDWELL       CLEAR     49  42  77 E5        30.02S
MOUNTAIN HOME  CLEAR     52  44  73 S5        30.04S
$$

IDZ016-017-281300-
SOUTHCENTRAL IDAHO


CITY           SKY/WX    TMP DP  RH WIND       PRES   REMARKS
BURLEY         CLEAR     44  43  96 N3        30.12S
JEROME         CLEAR     55  44  66 NE16      30.10S
TWIN FALLS     CLEAR     55  37  50 S3        30.11R
$$

IDZ019>023-281300-
SOUTHEAST IDAHO


CITY           SKY/WX    TMP DP  RH WIND       PRES   REMARKS
IDAHO FALLS    CLOUDY    43  39  86 N7        30.20R
POCATELLO      CLEAR     43  41  93 CALM      30.18R
REXBURG        CLOUDY    43  40  89 CALM      30.21R
$$

IDZ006-010-011-018-031-032-281300-
CENTRAL IDAHO MOUNTAINS


CITY           SKY/WX    TMP DP  RH WIND       PRES   REMARKS
MCCALL         CLEAR     42  36  79 CALM      30.16R
HAILEY         CLEAR     46  37  71 NW7       30.24R
STANLEY          N/A     33  30  88 CALM      30.30S
SALMON         CLEAR     39  37  93 CALM      30.19R
CHALLIS        CLEAR     43  34  70 CALM      30.22S
$$

IDZ002-004-006-007-026-281300-
NORTHERN IDAHO


CITY           SKY/WX    TMP DP  RH WIND       PRES   REMARKS
LEWISTON       CLEAR     59  46  62 CALM      30.00S
LOWELL           N/A     51  48  89 N3        30.08S
COEUR D`ALENE  CLEAR     52  43  71 NE8       30.06S
MULLAN PASS    CLEAR     55  40  56 SE8       30.19F
$$



USA.gov is the U.S. government's official web portal to all federal, state and local government web resources and services.